Hundvaag 1 weather for Aug 1993
Month no. 74
Obs.
Da.
Temp. Dew Point Precip. Wind
Speed
Wind gusts Cloud cover Press. Humidity Wind dir. Sunny OPT
01.08.1993 12,9   19,0             1  
02.08.1993 12,7   1,9                
03.08.1993 12,8   10,0                
04.08.1993 13,8   8,0             1  
05.08.1993 12,9   1,8             1  
06.08.1993 12,6   1,1                
07.08.1993 12,0   0,0             1  
08.08.1993 12,0   1,1                
09.08.1993 12,5   1,8                
10.08.1993 11,7   9,3                
11.08.1993 11,0   2,2                
12.08.1993 11,4   2,1             1  
13.08.1993 10,5   0,9             1  
14.08.1993 15,8   0,0             1  
15.08.1993 16,3   0,0             1  
16.08.1993 12,3   15,2                
17.08.1993 10,9   9,0             1  
18.08.1993 10,1   0,4             1  
19.08.1993 12,2   1,2                
20.08.1993 12,2   0,8                
21.08.1993 10,0   25,1             1  
22.08.1993 11,8   9,4             1  
23.08.1993 8,6   1,4             1  
24.08.1993 10,3   0,0             1  
25.08.1993 10,4   0,0                
26.08.1993 10,8   0,0                
27.08.1993 8,8   0,0             1  
28.08.1993 13,9   0,0             1  
29.08.1993 12,8   2,0                
30.08.1993 9,0   5,4                
31.08.1993 9,2   1,1                
Avrg/Sum 11,7   130,2             16